FLOCK 4V 15

导读

FLOCK 4V 15是美国Planet公司FLOCK-4v批次的SuperDove商业遥感卫星,于美国东部时间2020年9月3日发射入轨,属于Planet公司Dove遥感星座的组成部分。 该卫星配备多光谱传感器,可获取覆盖8个光谱波段的高分辨率对地观测影像,能为农业监测、林业资源管理、城市规划等领域提供及时可靠的地理空间数据,补充增强了星座全球 daily 重访能力。

基本信息
目录编号:
46528
目录名称:
FLOCK 4V 15
国际标识:
2020-061BE
轨道中心:
EARTH
卫星名称:
FLOCK 4V 15
卫星全名:
--
卫星状态:
已陨落 最后检测时间 2024-03-30
发射日期:
2020-09-03 UTC
国别 :
美国 (US)
星等 :
--
轨道信息
数据来源 国际轨道数据
星历时间: 2024-03-26T07:47:22+0800
轨道信息已过期840天
半长轴: 6575.08km
偏心率: 0.0010763
轨道倾角: 97.300°
近地点辐角 261.885°
升交点赤经 170.106°
平近点角 98.122°
近地点: 189.868km
远地点: 204.022km
周期: 88.432分钟
每日圈数: 16.283632
详细信息
使用方式:
暂无